Location: Moscow
(30.9132°N, 94.8252°W)
Time: 11:11:57
(UTC+00:00)

SL-19 R/B - Pass Details

Date: 15 November 2025
Orbit: 795 x 1008 km, 99.6° (Epoch: 11 December)

Event Time Altitude Azimuth Distance (km) Brightness Sun altitude
Rises 00:46:03 0° 157° (SSE) 3,363 7.2 -18.2°
Reaches altitude 10° 00:48:27 10° 154° (SSE) 2,410 6.4 -18.7°
Maximum altitude 00:53:40 64° 74° (ENE) 886 4.0 -19.8°
Drops below altitude 10° 00:58:48 10° 353° (N) 2,369 6.5 -20.9°
Sets 01:01:08 0° 351° (N) 3,301 7.3 -21.4°
